Flag for Colombia Weather past 2 weeks in Medellin, Colombia

Now
64 °F

Partly sunny.


Feels Like: 64 °F
Forecast: 67 / 85 °F
Wind: 2 mph from North

Location: Rionegro / J. M. Cordova

Current Time: Apr 28, 2015 at 9:31:08 AM

Latest Report: Apr 28, 2015 at 9:00 AM


Visibility: N/A

Pressure: 30.30 "Hg

Humidity: 83%

Dew point: 59 °F

Location of MedellinLocation

Historic Weather in Medellin — Graph

°F

Medellin temperature yesterday

Maximum temperature yesterday: 77 °F (at 2:00 PM)
Minimum temperature yesterday: 54 °F (at 4:00 AM)
Average temperature yesterday: 65 °F

Past Weeks' High & Low Weather Summary

 TemperatureHumidityPressure
High77 °F (Apr 24, 1:00 PM)100% (Apr 15, 7:00 AM)30.41 "Hg (Apr 15, 7:00 AM)
Low52 °F (Apr 22, 5:00 AM)39% (Apr 24, 1:00 PM)30.05 "Hg (Apr 18, 9:00 PM)
Average63 °F82%30.27 "Hg
* Reported Apr 13 8:00 AM — Apr 28 8:00 AM, Medellin, Weather by CustomWeather, © 2015

Note: Actual official high and low records may vary slightly from our data, if they occured in-between our weather recording intervals... More about our weather records

Advertising

Medellin weather history for previous 24 hours

 ConditionsComfort  
Time TempWeatherWind HumidityBarometerVisibility
8:00 AM
Tue, Apr 28
61 °FSnow. Broken clouds.2 mph94%30.27 "HgN/A
7:00 AM59 °FFog.5 mph100%30.26 "Hg6 mi
6:00 AM59 °FFog.No wind94%30.23 "Hg2 mi
5:00 AM59 °FFog.5 mph94%30.23 "Hg3 mi
4:00 AM59 °FPassing clouds.6 mph94%30.21 "Hg4 mi
2:00 AM59 °FPassing clouds.No wind94%30.21 "HgN/A
1:00 AM61 °FPassing clouds.No wind88%30.24 "HgN/A
12:00 AM61 °FPassing clouds.No wind94%30.27 "HgN/A
11:00 PM
Mon, Apr 27
63 °FPassing clouds.No wind88%30.28 "HgN/A
10:00 PM64 °FPassing clouds.No wind88%30.27 "HgN/A
9:00 PM64 °FPassing clouds.5 mph88%30.24 "HgN/A
8:00 PM64 °FPassing clouds.No wind94%30.23 "HgN/A
7:00 PM68 °FPassing clouds.7 mph60%30.21 "HgN/A
6:00 PM70 °FPartly sunny.8 mph53%30.18 "HgN/A
5:00 PM73 °FPartly sunny.7 mph44%30.15 "HgN/A
4:00 PM75 °FScattered clouds.12 mph44%30.16 "HgN/A
3:00 PM75 °FScattered clouds.14 mph41%30.17 "HgN/A
2:00 PM77 °FScattered clouds.17 mph44%30.19 "HgN/A
1:00 PM75 °FScattered clouds.14 mph47%30.22 "HgN/A
12:00 PM73 °FScattered clouds.18 mph44%30.25 "HgN/A
11:00 AM73 °FScattered clouds.14 mph44%30.26 "HgN/A
10:00 AM70 °FScattered clouds.7 mph60%30.27 "HgN/A
9:00 AM66 °FScattered clouds.No wind73%30.28 "HgN/A
Weather by CustomWeather, © 2015

See weather overviewHow to use our weather pages